Simultaneous Nadir Overpasses (SNOs) Predictions

Prediction of SNOs between GOES-16 and METOP-A Satellite Orbit:

Table of predicted SNOs for the next 14.0 days since TLE Epoch: 8/21/2021
Index Date Time (GOES-16) GOES-16 Lat,Lon METOP-A Lat,Lon Distance(km) Time Diff (sec)
1 08/21/2021 12:44:44 -0.03, -75.23 -0.83, -71.52 422.27 80
2 08/23/2021 01:06:24 0.02, -75.24 -0.16, -76.16 104.75 80
3 08/24/2021 00:43:04 0.03, -75.27 0.92, -71.18 465.10 80
4 08/25/2021 13:04:35 -0.02, -75.34 0.05, -75.79 50.10 80
5 08/28/2021 01:02:54 0.01, -75.40 -0.01, -75.44 5.47 80
6 08/30/2021 12:58:25 -0.01, -75.52 -0.11, -75.07 51.18 80
7 09/01/2021 01:20:04 -0.01, -75.54 -0.94, -79.70 473.72 80
8 09/02/2021 00:56:45 0.00, -75.58 0.21, -74.73 97.12 80
9 09/03/2021 13:18:15 0.01, -75.67 0.82, -79.33 416.71 80
